STARLINK-4411, 53202

Orbit data source: Space-Track

STARLINK-4411, 53202 is a payload satellite owned by SpaceX/Seattle (US) in SSO that was launched on Fri, 22 Jul 2022 UTC via an FALCON 9 launch vehicle from the Air Force Western Test Range (AFWTR). Payload-class satellites include a variety of spacecraft equipped with specific instruments for various scientific and technological missions. These include communications satellites like Starlink; space stations such as the ISS; scientific satellites like the Hubble; Earth observation satellites from companies like Planet Labs, Umbra, and HawkEye 360; GPS; miniature CubeSats for education and research; and military/defense satellites.

Loading next visibility...
Identifier
53202, 2022-084P
Orbit
SSO
Country
Flag of USUS
Related business
Manufacturer
SpaceX/Seattle
Mission
Operational Commercial Communications
Bus & Motor
STARLINK, Unknown motor
Mass
297 kg wet, ~275 kg dry
Launch date (UTC)
2022-07-22 (4 years ago)
Launch vehicle
FALCON 9
Launch site
Air Force Western Test Range (AFWTR)
Object type
Payload
Rocket body
Debris
Shape & HBR
Box + 1 Pan, 10.1 m
Radar Cross Section
13.562 m², Large (>1 m²)

Expand to show TLE details & history
Last TLE update: 3 days ago

TLE from 3 days ago
0 STARLINK-4411
1 53202U 22084P   26170.72871512 -.00001810  00000-0 -12147-3 0  9997
2 53202  97.3393 230.7459 0001861  57.2085 302.9321 15.05663816214739
Epoch: 2026-06-19T17:29Z
TLE epoch observation values (Epoch: 2026-06-19T17:29:20.986Z)
Latitude
-0.00008°
Longitude
60.45495°
Altitude
551.841 km
Speed
7.586 km/s
True Right ascension
15h 22m 59s
True Declination
0° 00' 00"
Sunlit
Object was in full shadow at epoch
Visualization orbit readout
Latitude
Unknown
Longitude
Unknown
Altitude
Unknown
Speed
Unknown
Apparent Right ascension
Unknown
Apparent Declination
Unknown
Sunlit
N/A
Visualization observer readout
Local Sidereal Time
21:27:20
Azimuth
Unknown
Elevation
Unknown
Doppler factor
Unknown
Orbital elements
Apogee altitude
547.74 km
Perigee altitude
545.162 km
Semi-major axis
6,924.588 km
Eccentricity
0.00019
Inclination
97.3393°
RAAN
230.7459°
Arg. of periapsis
57.2085°
True anomaly
302.9142°
Mean anomaly
302.9321°
Eccentric anomaly
302.92315°
Mean motion
3.76662 °/min
Orbital period
95.58 mins
BSTAR
-0.00012147
Loading maneuver chart data...
Computing Atmospheric mass density...
Loading historical data...
Loading historical data...
Loading historical data...
Loading historical data...
Loading historical data...
Loading historical data...
Loading historical data...

Documentation

Showing up to 5 results
|